Location: Pegasus Observatory
(35.6569°N, 82.5850°W)
Time: 15:31:41
(UTC-04:00)

M-CUBED/EXP-1 PRIME - Visible Passes

Search period start: 10 April 2020 00:00
Search period end: 20 April 2020 00:00
Orbit: 429 x 666 km, 101.7° (Epoch: 10 April)

Date Brightness Start Highest point End Pass type
(mag) Time Alt. Az. Time Alt. Az. Time Alt. Az.
10 Apr ? 20:38:04 10° ENE 20:39:27 11° ENE 20:40:52 10° NE visible
10 Apr ? 22:13:05 63° W 22:13:05 63° W 22:17:23 10° NNW visible
11 Apr ? 22:08:02 78° WSW 22:08:03 78° WSW 22:12:29 10° NNW visible
12 Apr ? 22:02:59 85° SE 22:03:05 87° ENE 22:07:32 10° NNW visible
13 Apr ? 21:57:55 70° E 21:58:07 72° ENE 22:02:35 10° NNW visible
14 Apr ? 21:52:52 57° E 21:53:11 59° ENE 21:57:36 10° N visible
14 Apr ? 23:28:32 10° W 23:28:32 10° W 23:28:51 10° W visible
15 Apr ? 21:47:48 47° E 21:48:14 49° ENE 21:52:35 10° N visible
15 Apr ? 23:23:28 13° W 23:23:28 13° W 23:24:53 10° WNW visible
16 Apr ? 21:42:45 39° E 21:43:18 41° ENE 21:47:33 10° N visible
16 Apr ? 23:18:24 16° W 23:18:24 16° W 23:20:29 10° WNW visible
17 Apr ? 21:37:41 32° E 21:38:23 34° ENE 21:42:29 10° N visible
17 Apr ? 23:13:21 19° W 23:13:21 19° W 23:15:55 10° NW visible
18 Apr ? 21:32:37 27° E 21:33:28 29° ENE 21:37:23 10° N visible
18 Apr ? 23:08:17 23° W 23:08:17 23° W 23:11:15 10° NW visible
19 Apr ? 21:27:33 23° E 21:28:33 25° ENE 21:32:14 10° N visible
19 Apr ? 23:03:13 27° W 23:03:13 27° W 23:06:31 10° NW visible
